📊 Raw Sensor Data
Showing records 45976 to 46000 of 85,063 total
| ID | Distance (ft) | Battery V | Battery A | Int Temp (°F) | Int Humid (%) | Ext Temp (°F) | Solar V | RSSI | SNR | Time Stamp |
|---|---|---|---|---|---|---|---|---|---|---|
| 39100 | 15.3 | 4.02 | 0 | 73 | 40 | 68 | 5.10 | -74 | 7 | 04/28/2025 12:45 PM |
| 39099 | 15.3 | 4.02 | 0 | 72 | 41 | 65 | 5.10 | -75 | 8 | 04/28/2025 12:30 PM |
| 39098 | 15.3 | 4.02 | 0 | 72 | 40 | 68 | 5.10 | -76 | 7 | 04/28/2025 12:00 PM |
| 39097 | 15.3 | 4.06 | 0 | 70 | 41 | 67 | 5.10 | -77 | 8 | 04/28/2025 11:45 AM |
| 39096 | 15.2 | 4.02 | 0 | 69 | 41 | 66 | 5.10 | -76 | 8 | 04/28/2025 11:30 AM |
| 39095 | 15.3 | 4.02 | 0 | 71 | 39 | 65 | 5.10 | -75 | 8 | 04/28/2025 11:15 AM |
| 39094 | 15.3 | 4.02 | 0 | 69 | 39 | 65 | 5.10 | -77 | 8 | 04/28/2025 11:00 AM |
| 39093 | 15.3 | 4.07 | 0 | 68 | 39 | 64 | 5.10 | -76 | 8 | 04/28/2025 10:45 AM |
| 39092 | 15.2 | 4.02 | 0 | 65 | 39 | 61 | 5.10 | -75 | 7 | 04/28/2025 10:30 AM |
| 39091 | 15.3 | 4.03 | 0 | 64 | 39 | 62 | 5.10 | -76 | 8 | 04/28/2025 10:15 AM |
| 39090 | 15.3 | 4.02 | 0 | 63 | 39 | 63 | 5.10 | -77 | 7 | 04/28/2025 10:00 AM |
| 39089 | 15.2 | 4.02 | 0 | 61 | 39 | 59 | 5.10 | -76 | 8 | 04/28/2025 09:45 AM |
| 39088 | 15.3 | 4.13 | 0 | 60 | 39 | 60 | 5.10 | -76 | 8 | 04/28/2025 09:30 AM |
| 39087 | 15.3 | 4.02 | 0 | 58 | 39 | 59 | 5.10 | -76 | 8 | 04/28/2025 09:15 AM |
| 39086 | 15.3 | 4.02 | 0 | 57 | 39 | 58 | 5.10 | -76 | 8 | 04/28/2025 09:00 AM |
| 39085 | 15.3 | 4.02 | 0 | 55 | 40 | 56 | 5.10 | -77 | 8 | 04/28/2025 08:45 AM |
| 39084 | 15.2 | 4.02 | 0 | 53 | 40 | 56 | 5.10 | -76 | 8 | 04/28/2025 08:30 AM |
| 39083 | -- | 4.02 | 0 | 53 | 39 | 53 | 5.10 | -76 | 8 | 04/28/2025 08:15 AM |
| 39082 | 15.3 | 4.14 | 0 | 52 | 39 | 55 | 5.10 | -78 | 6 | 04/28/2025 08:00 AM |
| 39081 | 15.3 | 4.02 | 0 | 50 | 39 | 53 | 5.10 | -78 | 8 | 04/28/2025 07:45 AM |
| 39080 | 15.2 | 4.12 | 54 | 48 | 39 | 52 | 4.50 | -80 | 7 | 04/28/2025 07:30 AM |
| 39079 | 15.1 | 4.04 | 6 | 45 | 40 | 54 | 4.50 | -79 | 8 | 04/28/2025 07:15 AM |
| 39078 | 15.1 | 4.05 | -5 | 43 | 41 | 48 | 4.50 | -79 | 8 | 04/28/2025 07:00 AM |
| 39077 | 15.1 | 4.03 | 0 | 41 | 41 | 43 | 4.50 | -79 | 7 | 04/28/2025 06:45 AM |
| 39076 | 15.0 | 3.95 | -5 | 41 | 41 | 43 | 4.50 | -79 | 9 | 04/28/2025 06:30 AM |